Regional Weather Roundup
Issued by NWS

Home | Current Version | Previous Version | Text Only | Print | Product List | Glossary On
Versions: 1 2 3 4 5 6 7 8 9 10 11 12 13 14 15 16 17 18 19 20 21 22 23 24 25 26 27 28 29 30 31 32 33 34 35 36 37 38 39 40 41 42 43 44 45 46 47 48 49 50
397
ASUS42 KKEY 300310
RWRKEY

FLORIDA REGIONAL WEATHER ROUNDUP FOR THE FLORIDA KEYS
NATIONAL WEATHER SERVICE KEY WEST FLORIDA
1100 PM EDT WED MAR 29 2017

...SOUTH FLORIDA AND THE KEYS...

CITY           SKY/WX    TMP DP  RH WIND       PRES   REMARKS
FORT MYERS     MOCLDY    76  67  73 CALM      30.04R
SW REGIONAL AP PTCLDY    72  63  73 CALM      30.04R
NAPLES         CLOUDY    74  69  85 NE3       30.04R
MIAMI          PTCLDY    75  62  64 E6        30.05R
WEST KENDALL   CLEAR     71  62  73 SE3       30.05R
HOMESTEAD      CLEAR     71  66  84 CALM      30.04R
MARATHON       PTCLDY    77  65  66 E8        30.03S
BOCA CHICA NAS CLEAR     75  66  73 E12       30.02S
KEY WEST INTL  CLEAR     76  66  71 E8        30.02S

...INTERNATIONAL WEATHER...

CITY           SKY/WX    TMP DP  RH WIND       PRES   REMARKS
NASSAU BAHAMAS PTCLDY    66  59  77 CALM      30.07R
CANCUN MEXICO  PTCLDY    79  70  73 SE18      29.91S
COZUMEL MEXICO PTCLDY    79  70  73 SE12      29.90R

ADJACENT COASTAL WATERS...

STATION/POSITION TIME  SKY/WX   TEMP    WIND        PRES    WAVE
                                AIR SEA DIR/SP/G            HT/PER
                 (UTC)          (F)     (DEG/KT/KT) (MB)    (FT/S)
PULASKI SHOAL LI 0300            76     110/ 10/ 11 1016.3R
SAND KEY         0250            77     110/ 15/ 17 1016.8F
LONG KEY         0200            76 79  110/  8/  9 1017.3R
MOLASSES REEF    0100            76 79   50/  6/  9 1016.9R
FOWEY ROCKS      0300            76 77  100/  9/ 10 1018.0R
Buoy 42097       0300                                 N/A     2/ 6

$$




USA.gov is the U.S. government's official web portal to all federal, state and local government web resources and services.